Location: Fours
(44.3167°N, 6.7000°E)
Time: 09:36:36
(UTC+00:00)

SL-8 Rocket - Pass Details

Date: 16 October 2021
Orbit: 956 x 991 km, 82.9° (Epoch: 07 December)

Event Time Altitude Azimuth Distance (km) Brightness Sun altitude
Rises 17:22:30 0° 194° (SSW) 3,689 7.3 -7.1°
Reaches altitude 10° 17:25:02 10° 197° (SSW) 2,746 6.7 -7.5°
Maximum altitude 17:31:19 68° 280° (W) 1,065 4.5 -8.6°
Drops below altitude 10° 17:37:38 10° 3° (N) 2,758 6.3 -9.8°
Sets 17:40:11 0° 6° (N) 3,707 6.9 -10.2°
